Location: Krakow
(50.0830°N, 19.9170°E)
Time: 06:32:31
(UTC+01:00)

Transit 2A - Visible Passes

Search period start: 10 December 2023 00:00
Search period end: 20 December 2023 00:00
Orbit: 600 x 953 km, 66.7° (Epoch: 09 December)

Date Brightness Start Highest point End Pass type
(mag) Time Alt. Az. Time Alt. Az. Time Alt. Az.
10 Dec 7.8 16:35:00 10° WNW 16:37:55 16° NNW 16:40:45 10° NNE visible
12 Dec 8.0 17:11:37 10° NNW 17:12:14 10° NNW 17:12:50 10° N visible
13 Dec 7.9 16:35:20 10° NW 16:36:53 11° NNW 16:38:25 10° N visible
16 Dec 8.1 18:19:07 10° N 18:19:11 10° N 18:19:11 10° N visible
17 Dec 7.9 17:44:32 10° N 17:45:11 11° N 17:45:11 11° N visible
19 Dec 7.8 18:16:54 10° NNW 18:17:42 13° N 18:17:42 13° N visible
